Regional Weather Roundup
Issued by NWS

Home | Current Version | Previous Version | Text Only | Print | Product List | Glossary On
Versions: 1 2 3 4 5 6 7 8 9 10 11 12 13 14 15 16 17 18 19 20 21 22 23 24 25 26 27 28 29 30 31 32 33 34 35 36 37 38 39 40 41 42 43 44 45 46 47 48 49 50
000
ASUS43 KMKX 041700
RWRWI

WISCONSIN REGIONAL WEATHER ROUNDUP
NATIONAL WEATHER SERVICE MILWAUKEE/SULLIVAN WI
1200 PM CDT FRI SEP 04 2015

NOTE: "FAIR" INDICATES FEW OR NO CLOUDS BELOW 12,000 FEET WITH NO
SIGNIFICANT WEATHER AND/OR OBSTRUCTIONS TO VISIBILITY.

WIZ001-002-006>008-014>016-023>028-041800-
NORTHWEST WISCONSIN

CITY           SKY/WX    TMP DP  RH WIND       PRES   REMARKS
SUPERIOR ARPT  PTSUNNY   64  60  87 E13G18    30.00R
ASHLAND        SUNNY     77  69  76 N9        30.02S
HAYWARD        SUNNY     78  65  63 SE8       30.01F HX  80
SIREN          SUNNY     79  66  65 SE12      29.97R HX  81
CUMBERLAND     SUNNY     73  66  78 SE15      30.00S
RICE LAKE      MOSUNNY   76  66  72 SE12      30.02S
CHETEK         PTSUNNY   75  67  75 E9        30.01F
LADYSMITH      SUNNY     78  65  62 SE9       30.05S HX  80
EAU CLAIRE     MOSUNNY   80  68  66 SE9       29.99F HX  83
MENOMONIE      SUNNY     81  69  66 E13       29.99F HX  83
NEW RICHMOND   SUNNY     79  68  68 SE12      29.97S HX  81
OSCEOLA        SUNNY     80  69  70 SE14      29.98F HX  83
$$

WIZ003>005-009-010-017-018-041800-
NORTH CENTRAL WISCONSIN

CITY           SKY/WX    TMP DP  RH WIND       PRES   REMARKS
MANITOWISH WTR SUNNY     77  65  66 SE7       30.07F
ARBOR VITAE    SUNNY     77  64  63 SE12      30.07S
WOODRUFF       SUNNY     77  64  63 SE12      30.07S
RHINELANDER    SUNNY     79  63  57 SE12      30.08S HX  80
EAGLE RIVER    SUNNY     77  59  53 SE7       30.08S
LAND O LAKES   SUNNY     78  60  53 SE8       30.10R HX  80
PHILLIPS       SUNNY     76  66  69 E7        30.05F
TOMAHAWK       SUNNY     77  65  66 CALM      30.07S
MEDFORD        SUNNY     72  65  81 SE8       30.07S
MERRILL        MOSUNNY   77  67  70 S6        30.07S
$$

WIZ029-030-035-036-043>047-041800-
CENTRAL WISCONSIN

CITY           SKY/WX    TMP DP  RH WIND       PRES   REMARKS
WAUSAU         PTSUNNY   73  65  75 S6        30.06S
MOSINEE        CLOUDY    70  66  88 SE6       30.08S
MARSHFIELD     CLOUDY    70  63  78 SE9       30.07S
STEVENS POINT  CLOUDY    67  64  89 SE7       30.07S
WAUPACA        CLOUDY    70  69  94 S5        30.06S
WAUTOMA        NOT AVBL
WISC RAPIDS    CLOUDY    70  63  78 E6        30.07S
CAMP DOUGLAS   NOT AVBL
$$

WIZ011>013-019>022-031-037>040-048>050-041800-
NORTHEAST WISCONSIN

CITY           SKY/WX    TMP DP  RH WIND       PRES   REMARKS
ANTIGO         SUNNY     76  65  69 E9        30.08S
SHAWANO        NOT AVBL
OCONTO         MOSUNNY   73  67  81 E6        30.04S
STURGEON BAY   CLOUDY    72  64  78 E3        30.07S
GREEN BAY      SUNNY     75  66  73 CALM      30.05R
MANITOWOC      CLOUDY    73  66  78 MISG      30.05S
APPLETON       CLOUDY    72  64  78 VRB3      30.04F
CLINTONVILLE   MOSUNNY   73  66  78 S3        30.05S
OSHKOSH        CLOUDY    70  64  81 E3        30.05S
$$

WIZ032>034-041-042-053>061-041800-
SOUTHWEST WISCONSIN

CITY           SKY/WX    TMP DP  RH WIND       PRES   REMARKS
LA CROSSE      MOSUNNY   83  70  64 S6        29.99S HX  87
SPARTA         SUNNY     79  65  61 SE7       30.02F HX  81
VIROQUA        MOSUNNY   80  70  71 SE7       30.04S HX  83
BOSCOBEL       SUNNY     85  70  60 VRB3      30.00F HX  89
PRAIRIE DU CHI SUNNY     82  69  63 SE6       29.99F HX  85
PLATTEVILLE    SUNNY     81  74  78 SE3       30.03S HX  86
$$

WIZ056-057-062-063-064-067-068-041800-
SOUTH CENTRAL WISCONSIN

CITY           SKY/WX    TMP DP  RH WIND       PRES   REMARKS
REEDSBURG      MOSUNNY   76  68  75 E3        30.04S
BARABOO/DELLS  PTSUNNY   73  64  73 E7        30.05S
LONE ROCK      NOT AVBL
MINERAL POINT  SUNNY     81  70  69 SE5       30.04F HX  84
MADISON        PTSUNNY   75  66  73 CALM      30.04S
MIDDLETON      MOSUNNY   79  67  66 E7        30.05S HX  81
WATERTOWN      CLOUDY    70  70  99 NE3       30.05S
MONROE         MOSUNNY   79  70  73 S3        30.04F HX  81
JANESVILLE     PTSUNNY   81  68  65 CALM      30.03F HX  83
$$

WIZ051-052-058>065-066-070>072-041800-
SOUTHEAST WISCONSIN

CITY           SKY/WX    TMP DP  RH WIND       PRES   REMARKS
MILWAUKEE      MOSUNNY   74  65  73 NE6       30.04F
WAUKESHA       MOSUNNY   73  64  73 CALM      30.06S
MILWAUKEE/TIMM CLOUDY    72  63  73 CALM      30.06S
RACINE         PTSUNNY   76  64  66 NE7       30.06F
BURLINGTON     MOSUNNY   73  64  74 CALM      30.05S
KENOSHA        MOSUNNY   75  66  73 NW5       30.05F
FOND DU LAC    CLOUDY    72  66  81 VRB3      30.05F
SHEBOYGAN      CLOUDY    70  66  87 E5        30.05S
WEST BEND      CLOUDY    70  63  78 CALM      30.06S
JUNEAU         CLOUDY    72  65  81 CALM      30.07S
$$

LSZ147-162-041800-
LAKE SUPERIOR

STATION/POSITION TIME  TEMP    WIND        PRES    WAVE
                       AIR SEA DIR/SP/G            HT/PER
                 (UTC) (F)     (DEG/KT/KT) (MB)    (FT/S)
W MID LAKE BUOY  1550   61 57  100/  8/  8 1017.3F   0
DEVILS ISLAND    1600   61      60/  7/  7 1017.1R
PORT WING        1600   56      30/ 15/ 17 1015.9F
SAXON HARBOR     1640   67        CALM     1016.3S
$$

LMZ867-665-643>646-041800-
LAKE MICHIGAN

STATION/POSITION TIME  TEMP    WIND        PRES    WAVE
                       AIR SEA DIR/SP/G            HT/PER
                 (UTC) (F)     (DEG/KT/KT) (MB)    (FT/S)
CHAMBERS ISLAND  1600   69      10/  8/  9 1017.6S
S GREEN BAY BUOY 1630   67 67   20/  6/  6 1018.7F
N MID LAKE BUOY  1550   67 66  120/  8/  8 1017.0R   2/ 4
NORTHPORT PIER   1600   71      40/  2/  4 1017.3S
SISTER BAY       1611   78     140/  8/ 10   N/A
ALGOMA LAKESHORE 1614             CALM       N/A
KEWAUNEE LAKESHO 1600   67      30/  3/  5 1016.4S
SHEBOYGAN LAKESH 1600   62     340/  8/  9 1017.8R
PORT WASHINGTON  1600   63      CALM  /  2 1018.3R
ATWATER BUOY     1600   61     360/  6/  6 1019.1R
MILWAUKEE LAKESH 1610   69      10/  5/  6   N/A
S MID LAKE BUOY  1550   67 71  320/  6/  8 1016.8    1/ 4
KENOSHA   LAKESH 1600   67      CALM  /  2 1017.3S
$$

TC  - TEMPERATURE IN CELSIUS
VSB - VISIBILITY IN STATUTE MILES
WCI - WIND CHILL INDEX
HX  - HEAT INDEX




USA.gov is the U.S. government's official web portal to all federal, state and local government web resources and services.